Regional Weather Roundup
Issued by NWS

Home | Current Version | Previous Version | Graphics & Text | Print | Product List | Glossary On
Versions: 1 2 3 4 5 6 7 8 9 10 11 12 13 14 15 16 17 18 19 20 21 22 23 24 25 26 27 28
000
ASUS45 KTFX 100210
RWRMT
MONTANA REGIONAL WEATHER ROUNDUP
NATIONAL WEATHER SERVICE GREAT FALLS MT
700 PM MST SAT DEC 09 2017

NOTE: "FAIR" INDICATES FEW OR NO CLOUDS BELOW 12000 FEET WITH NO
SIGNIFICANT WEATHER AND/OR OBSTRUCTIONS TO VISIBILITY.

MTZ001>007-043-100300-
WEST OF THE DIVIDE

CITY           SKY/WX    TMP DP  RH WIND       PRES   REMARKS
KALISPELL      CLOUDY    26  20  77 CALM      30.63S
MISSOULA       CLOUDY    21  19  92 S5        30.63R FOG
BUTTE          FAIR      12   7  80 S6        30.51R WCI   3
MULLAN PASS    FAIR      35  12  38 SW6       30.49S WCI  30
ANACONDA         N/A     12   7  79 CALM      30.52S
DEER LODGE       N/A     12  10  92 CALM      30.56R
EUREKA           N/A     25  18  74 MISG      30.66R
HAMILTON         N/A     18  14  86 CALM      30.61R
LIBBY            N/A    N/A N/A N/A CALM      30.63R
RONAN            N/A     26  21  81 CALM      30.60S
$$

MTZ008-052>055-100300-
SOUTHWEST MONTANA

CITY           SKY/WX    TMP DP  RH WIND       PRES   REMARKS
BOZEMAN        FAIR      16  11  80 S5        30.48S
DILLON         FAIR      25  14  63 CALM      30.50R
W YELLOWSTONE  FAIR       9   7  92 CALM      30.57F
ENNIS          CLOUDY    30  16  55 S6G13     30.54R WCI  24
THREE FORKS      N/A     13   8  80 CALM      30.42R
$$

MTZ009-010-012-014-046-048-049-054-100300-
EAST SLOPES AND CENTRAL MONTANA

CITY           SKY/WX    TMP DP  RH WIND       PRES   REMARKS
CUT BANK       FAIR      38   9  30 W15       30.28R WCI  29
GREAT FALLS    FAIR      40   9  28 SW15      30.34R
MALMSTROM AFB  FAIR      38  11  32 SW16      30.33R WCI  28
HELENA         FAIR      24  18  77 W3        30.47R
BOWMANS CRNR   FAIR      35   9  34 S12       30.35R WCI  26
CHOTEAU          N/A     48   3  15 W13G22    30.32S
FAIRFIELD      FAIR      41   4  21 SW6       30.31R
POWER          FAIR      36   7  30 SW7       30.31R WCI  30
RAYNESFORD     FAIR      48   6  18 SW18      30.33R
ULM            FAIR      42  10  27 S10       30.36R
$$

MTZ011-013-016-021-045-047-050-051-100300-
NORTH CENTRAL MONTANA

CITY           SKY/WX    TMP DP  RH WIND       PRES   REMARKS
HAVRE          FAIR      38  12  34 SW15      30.25R WCI  29
LEWISTOWN      FAIR      34  16  47 W5        30.32R
N BAR RANCH    FAIR      46   1  15 NW14G22   30.31R
CHINOOK          N/A     36  10  35 W5        30.23S
DENTON         FAIR      40   8  27 MISG      30.27R
GEYSER         FAIR      42   8  25 W14       30.31R
GRASS RANGE    FAIR      47   9  21 W22G29    30.25R
STANFORD       FAIR      38   6  26 CALM      30.32R
WINIFRED       FAIR      42   8  24 W9        30.28R
$$

MTZ017>020-022>027-061-062-100300-
NORTHEAST MONTANA

CITY           SKY/WX    TMP DP  RH WIND       PRES   REMARKS
GLASGOW        FAIR      34  11  38 W8        30.17R WCI  27
GLENDIVE       FAIR      43  16  33 W24       30.13R
JORDAN           N/A     32   9  38 W8        30.21R WCI  25
SIDNEY         FAIR      37  21  52 CALM      30.08R
WOLF POINT     FAIR      45  13  27 W16G29    30.13R
MALTA          CLEAR     32  12  43 W12       30.21R WCI  23
PLENTYWOOD       N/A     41  25  52 W13       30.02S
POPLAR           N/A     37  12  35 W7        30.11R
$$

MTZ028>42-056>058-100300-
SOUTHCENTRAL AND SOUTHEAST MONTANA

CITY           SKY/WX    TMP DP  RH WIND       PRES   REMARKS
BAKER          FAIR      41  19  41 W18       30.15R
BILLINGS       FAIR      40  18  41 SW21      30.31R
LIVINGSTON     FAIR      44  13  28 W18       30.40R
MILES CITY     FAIR      41  14  33 NW7       30.21R
BIG TIMBER     CLEAR     45   9  23 W33       30.36R
FORSYTH          N/A     46  10  23 SW6       30.25R
HARLOWTON      FAIR      41   8  25 NW32G38   30.34S
LAUREL           N/A     34  19  55 SW13      30.34S WCI  25
$$

REGIONAL REPORTS...DAKOTAS

CITY           SKY/WX    TMP DP  RH WIND       PRES   REMARKS
WILLISTON      FAIR      42  23  46 CALM      30.02S
MINOT          FAIR      40  25  55 W26       29.90S
DICKINSON      FAIR      40  23  50 W17       30.02R
BEACH          MOCLDY    41  18  38 W22       30.11F
CROSBY         FAIR      37  25  60 NW15      29.99R WCI  28
TIOGA          FAIR      36  25  64 NW17      29.99S WCI  25
WATFORD CITY   FAIR      43  23  45 W12G17    30.02R
BISMARCK       FAIR      42  27  55 NW15      29.95R
GRAND FORKS    FAIR      32  24  72 NW15      29.76R WCI  22
FARGO          FAIR      29  25  85 S10       29.81F WCI  20
BUFFALO SD       N/A     41  20  43 NW23      30.06R
RAPID CITY     FAIR      53   8  16 NW22      30.14R
$$

REGIONAL REPORTS...WYOMING/IDAHO/WASHINGTON

CITY           SKY/WX    TMP DP  RH WIND       PRES   REMARKS
GILLETTE       FAIR      39  11  31 W16       30.28R WCI  30
SHERIDAN       FAIR      32  15  49 NW6       30.32R WCI  26
BUFFALO WY     FAIR      38   6  26 SW7       30.33S
CODY           FAIR      37   9  31 NW5       30.38R
YELLOWSTONE LA   N/A     13  11  92 NW3       30.57S
IDAHO FALLS    FAIR      10   7  87 N3        30.63S
SALMON         CLOUDY    19  15  84 NW3       30.75R
BOISE          CLOUDY    27  20  75 S7        30.71R WCI  19
SPOKANE        CLOUDY    28  25  88 NE5       30.62S
$$

REGIONAL REPORTS...ALBERTA

CITY           SKY/WX    TMP DP  RH WIND       PRES   REMARKS
EDMONTON       CLEAR     34  18  51 W8        30.07F WCI  27
CALGARY        CLEAR     55   1  11 W17G24    30.18S
LETHBRIDGE     PTCLDY    45  10  24 W20G26    30.23S
MEDICINE HAT   CLEAR     28  16  59 N5        30.20R
$$

REGIONAL REPORTS...SASKATCHEWAN

CITY           SKY/WX    TMP DP  RH WIND       PRES   REMARKS
SWIFT CURRENT  CLEAR     36  18  48 W17G24    30.09S WCI  25
REGINA         PTCLDY    30  23  74 W12       29.98R WCI  21
SASKATOON      MOCLDY    32  23  69 W5        29.99R
$$




USA.gov is the U.S. government's official web portal to all federal, state and local government web resources and services.